Location: *
(0.1100°N, 5.5000°E)
Time: 04:01:56
(UTC+00:00)

deb Kosmos-1375 - Visible Passes

Search period start: 07 December 2023 00:00
Search period end: 17 December 2023 00:00
Orbit: 768 x 808 km, 65.7° (Epoch: 06 December)

Date Brightness Start Highest point End Pass type
(mag) Time Alt. Az. Time Alt. Az. Time Alt. Az.
07 Dec ? 03:22:12 25° NNE 03:24:15 32° ENE 03:29:06 10° SE visible
08 Dec ? 02:52:23 21° ENE 02:52:39 21° ENE 02:56:43 10° ESE visible
08 Dec ? 04:33:07 18° WNW 04:35:53 27° WSW 04:40:28 10° SSW visible
09 Dec ? 02:22:30 12° E 02:22:30 12° E 02:23:38 10° E visible
09 Dec ? 04:03:13 37° W 04:04:18 41° WSW 04:09:27 10° S visible
10 Dec ? 03:33:15 61° SW 03:33:15 61° SW 03:38:08 10° SSE visible
11 Dec ? 03:03:12 39° SSE 03:03:12 39° SSE 03:06:35 10° SSE visible
12 Dec ? 02:33:04 20° SE 02:33:04 20° SE 02:34:48 10° SE visible
13 Dec ? 03:43:33 13° SW 03:43:33 13° SW 03:44:30 10° SSW visible
14 Dec ? 03:13:15 13° SSW 03:13:15 13° SSW 03:13:54 10° SSW visible
